Regional Weather Roundup
Issued by NWS

Home | Current Version | Previous Version | Graphics & Text | Print | Product List | Glossary On
Versions: 1 2 3 4 5 6 7 8 9 10 11 12 13 14 15 16 17 18 19 20 21 22 23 24 25 26 27 28 29 30 31 32 33 34 35 36 37 38 39 40 41 42 43 44 45 46 47 48 49 50
000
ASUS45 KCYS 221510
RWRWY

WYOMING REGIONAL WEATHER ROUNDUP
NATIONAL WEATHER SERVICE CHEYENNE WY
900 AM MDT FRI AUG 22 2014

NOTE:  "FAIR" INDICATES FEW OR NO CLOUDS BELOW 12,000 FEET
WITH NO SIGNIFICANT WEATHER AND/OR OBSTRUCTIONS TO VISIBILITY.

WYZ001-221600-
YELLOWSTONE NATIONAL PARK

CITY           SKY/WX    TMP DP  RH WIND       PRES   REMARKS
LK YELLOWSTONE   N/A     46  44  93 CALM      30.23R
W YELLOWSTONE  NOT AVBL

$$
WYZ002>013-054>058-071-098>099-221600-
NORTHERN WYOMING

CITY           SKY/WX    TMP DP  RH WIND       PRES   REMARKS
JACKSON        CLOUDY    48  48 100 S8        30.18R
CODY           CLOUDY    54  52  94 NE6       30.12F
GREYBULL       CLOUDY    59  55  87 NW7       30.09R
WORLAND        MOSUNNY   58  51  78 NW3       30.09S
SHERIDAN       CLOUDY    59  55  87 CALM      30.09F
BUFFALO        CLOUDY    59  55  87 SE9       30.13S
GILLETTE       PTSUNNY   62  54  74 E6        30.10F
HULETT         CLOUDY    63  57  82 MISG      30.13
NEWCASTLE      FAIR      61  52  72 S6        30.12

$$
WYZ014>020-022>026-101>103-221600-
CENTRAL WYOMING

CITY           SKY/WX    TMP DP  RH WIND       PRES   REMARKS
BIG PINEY      CLOUDY    51  46  83 N10       30.21F
PINEDALE       PTSUNNY   50  46  87 NW13      30.21F
DUBOIS         CLOUDY    46  45  93 CALM      30.18S
LANDER         PTSUNNY   58  49  72 N7        30.13R
RIVERTON       PTSUNNY   56  51  84 W9        30.14R
CASPER         PTSUNNY   60  51  72 E9        30.14F
DOUGLAS        CLOUDY    60  52  74 CALM      30.16F

$$
WYZ021-027>030-104>119-221600-
SOUTHERN WYOMING

CITY           SKY/WX    TMP DP  RH WIND       PRES   REMARKS
EVANSTON       CLOUDY    54  46  74 NE6       30.19R
KEMMERER       CLOUDY    50  45  81 W6        30.22R
FORT BRIDGER   CLOUDY    51  48  89 NE5       30.22S
ROCK SPRINGS   MOSUNNY   56  43  61 CALM      30.18F
DIXON          FAIR      57  48  71 CALM      30.21F
RAWLINS        PTSUNNY   54  47  77 NW3       30.22R
SARATOGA       FAIR      59  46  63 MISG      30.21F
LARAMIE        CLOUDY    59  45  59 S14       30.25F
CHEYENNE       CLOUDY    61  54  77 SW3       30.22F
TORRINGTON     MOSUNNY   62  55  77 NW6       30.13R
PINE BLUFFS    PTSUNNY   63  55  77 W8        30.18S

$$



USA.gov is the U.S. government's official web portal to all federal, state and local government web resources and services.